Meerawa, Australia

8:48 AM AEST on September 22, 2017 (GMT +1000)
Meerawa

Weather History for 94287 - March, 2013

Change the Weather History Date:

Wednesday, March 13, 2013

  Actual Average Record
Temperature  
Mean Temperature 76 °F -  
Max Temperature 80 °F 86 °F - ()
Min Temperature 72 °F 72 °F - ()
Cooling Degree Days 11    
Growing Degree Days 26 (Base 50)    
Moisture  
Dew Point 72 °F    
Average Humidity 85    
Maximum Humidity 100    
Minimum Humidity 72    
Precipitation  
Precipitation 0.59 in 0.46 in - ()
Sea Level Pressure  
Sea Level Pressure 29.70 in    
Wind  
Wind Speed 11 mph ()    
Max Wind Speed 18 mph    
Max Gust Speed 30 mph    
Visibility 5.9 miles    
Events Rain    
T = Trace of Precipitation, MM = Missing Value Source: Averaged Metar Reports

Daily Weather History Graph

Daily Weather History Graph

Search for Another Location

Airport or City:

Trip Planner

Search our weather history database for the weather conditions in past years. The results will help you decide how hot, cold, wet, or windy it might be!

Date:

Astronomy

Mar. 13, 2013 Rise Set
Actual Time 6:19 AM AEST 6:33 PM AEST
Civil Twilight 5:57 AM AEST 6:54 PM AEST
Nautical Twilight 5:32 AM AEST 7:20 PM AEST
Astronomical Twilight 5:07 AM AEST 7:45 PM AEST
Moon 7:15 AM AEST (3/13) 7:21 PM AEST (3/13)
Length of Visible Light 12h 57m
Length of Day
12h 13m
New Moon, 2% of the Moon is Illuminated
Mar 13
New Moon
Mar 20
First Quarter
Mar 27
Full
Apr 3
Last Quarter
Apr 10
New

Hourly Weather History & Observations

Time (AEST) Temp. Heat Index Dew Point Humidity Pressure Visibility Wind Dir Wind Speed Gust Speed Precip Events Conditions
12:00 AM 76 °F - 69 °F 72% 29.75 in - South 12.7 mph - -  
12:00 AM 75.2 °F - 68.0 °F 78% 29.74 in 2.5 mi South 12.7 mph - N/A Rain Light Rain Showers
12:30 AM 73.4 °F - 69.8 °F 88% 29.74 in 6.2 mi South 11.5 mph - N/A   Mostly Cloudy
1:00 AM 75 °F - 69 °F 75% 29.73 in - South 11.5 mph - -  
1:00 AM 75.2 °F - 68.0 °F 78% 29.71 in 2.5 mi South 11.5 mph - N/A Rain Light Rain Showers
1:30 AM 73.4 °F - 71.6 °F 94% 29.71 in 4.3 mi South 12.7 mph - N/A   Mostly Cloudy
2:00 AM 73.4 °F - 71.6 °F 94% 29.71 in 4.3 mi South 12.7 mph - N/A Rain Light Rain Showers
2:30 AM 73.4 °F - 69.8 °F 88% 29.71 in 6.2 mi SSW 9.2 mph - N/A Rain Light Rain Showers
3:00 AM 75 °F - 71 °F 82% 29.69 in - SSW 8.1 mph - -  
3:00 AM 75.2 °F - 69.8 °F 83% 29.68 in 5.0 mi SSW 8.1 mph - N/A   Mostly Cloudy
3:30 AM 73.4 °F - 71.6 °F 94% 29.68 in 5.0 mi SE 12.7 mph - N/A Rain Light Rain Showers
4:00 AM 73 °F - 72 °F 97% 29.69 in - SE 10.4 mph - -  
4:00 AM 73.4 °F - 71.6 °F 94% 29.68 in 5.6 mi SE 10.4 mph - N/A Rain Light Rain Showers
4:30 AM 75.2 °F - 69.8 °F 83% 29.68 in 6.2 mi South 11.5 mph - N/A   Mostly Cloudy
5:00 AM 75.2 °F - 71.6 °F 89% 29.68 in 6.2 mi South 10.4 mph - N/A   Mostly Cloudy
5:30 AM 75.2 °F - 71.6 °F 89% 29.68 in 6.2 mi South 8.1 mph - N/A   Mostly Cloudy
6:00 AM 76 °F - 70 °F 77% 29.70 in 12 mi South 9.2 mph - -   Mostly Cloudy
6:00 AM 75.2 °F - 69.8 °F 83% 29.68 in 6.2 mi South 9.2 mph - N/A   Mostly Cloudy
6:30 AM 75.2 °F - 69.8 °F 83% 29.71 in 6.2 mi South 10.4 mph - N/A   Mostly Cloudy
7:00 AM 76 °F - 70 °F 77% 29.72 in - SSE 9.2 mph - -  
7:00 AM 75.2 °F - 69.8 °F 83% 29.71 in 6.2 mi SSE 9.2 mph - N/A Rain Light Rain Showers
7:30 AM 75.2 °F - 71.6 °F 89% 29.71 in 6.2 mi South 12.7 mph - N/A   Mostly Cloudy
8:00 AM 77.0 °F - 71.6 °F 83% 29.71 in 6.2 mi South 16.1 mph - N/A   Mostly Cloudy
8:30 AM 77.0 °F - 71.6 °F 83% 29.71 in 5.0 mi South 12.7 mph - N/A Rain Light Rain Showers
9:00 AM 77 °F - 72 °F 80% 29.74 in 12 mi South 10.4 mph - - Rain Light Rain Showers
9:00 AM 77.0 °F - 71.6 °F 83% 29.74 in 5.0 mi South 10.4 mph - N/A   Mostly Cloudy
9:30 AM 78.8 °F - 73.4 °F 83% 29.74 in 6.2 mi South 9.2 mph - N/A   Mostly Cloudy
10:00 AM 79 °F - 73 °F 78% 29.75 in - South 13.8 mph - -  
10:00 AM 78.8 °F - 73.4 °F 83% 29.74 in 6.2 mi South 13.8 mph - N/A Rain Light Rain Showers
10:14 AM 77.0 °F - 73.4 °F 89% 29.74 in 4.3 mi South 12.7 mph - N/A Rain Light Rain Showers
10:30 AM 78.8 °F - 73.4 °F 83% 29.71 in 6.2 mi South 10.4 mph - N/A   Mostly Cloudy
11:00 AM 80.6 °F 86.2 °F 75.2 °F 84% 29.71 in 6.2 mi South 10.4 mph - N/A   Mostly Cloudy
11:30 AM 78.8 °F - 73.4 °F 83% 29.71 in 6.2 mi ESE 18.4 mph - N/A Rain Light Rain Showers
12:00 PM 80 °F - 74 °F 77% 29.71 in 12 mi South 10.4 mph - - Rain Light Rain
12:00 PM 80.6 °F 85.4 °F 73.4 °F 79% 29.71 in 6.2 mi South 10.4 mph - N/A Rain Light Rain
12:30 PM 80.6 °F 85.4 °F 73.4 °F 79% 29.68 in 6.2 mi South 16.1 mph - N/A   Mostly Cloudy
1:00 PM 79 °F - 73 °F 78% 29.70 in - South 10.4 mph - -  
1:00 PM 78.8 °F - 73.4 °F 83% 29.68 in 3.1 mi South 10.4 mph - N/A Rain Light Rain Showers
1:30 PM 75.2 °F - 75.2 °F 100% 29.68 in 3.7 mi SSE 12.7 mph - N/A Rain Light Rain Showers
1:43 PM 77.0 °F - 73.4 °F 89% 29.68 in 5.0 mi SSE 9.2 mph - N/A Rain Light Rain Showers
1:50 PM 77.0 °F - 75.2 °F 94% 29.68 in 5.6 mi South 9.2 mph - N/A Rain Light Rain Showers
2:00 PM 77.0 °F - 75.2 °F 94% 29.65 in 5.0 mi SSE 9.2 mph - N/A   Mostly Cloudy
2:07 PM 78.8 °F - 75.2 °F 89% 29.65 in 3.1 mi SSE 8.1 mph - N/A Rain Light Rain Showers
2:30 PM 75.2 °F - 73.4 °F 94% 29.65 in 5.0 mi SE 15.0 mph - N/A Rain Light Rain Showers
3:00 PM 78 °F - 74 °F 83% 29.66 in 12 mi SSE 9.2 mph - - Rain Light Rain Showers
3:00 PM 78.8 °F - 73.4 °F 83% 29.65 in 6.2 mi SSE 9.2 mph - N/A   Mostly Cloudy
3:30 PM 78.8 °F - 73.4 °F 83% 29.65 in 2.5 mi SSE 13.8 mph - N/A Rain Light Rain Showers
3:45 PM 77.0 °F - 73.4 °F 89% 29.65 in 6.2 mi South 11.5 mph 23.0 mph N/A   Mostly Cloudy
4:00 PM 78 °F - 74 °F 82% 29.66 in - South 8.1 mph - -  
4:00 PM 78.8 °F - 73.4 °F 83% 29.65 in 6.2 mi South 8.1 mph - N/A   Mostly Cloudy
4:30 PM 78.8 °F - 73.4 °F 83% 29.65 in 6.2 mi SSE 10.4 mph - N/A   Mostly Cloudy
5:00 PM 78.8 °F - 71.6 °F 78% 29.65 in 6.2 mi SSE 13.8 mph - N/A   Mostly Cloudy
5:09 PM 78.8 °F - 73.4 °F 83% 29.65 in 6.2 mi SSE 11.5 mph - N/A Rain Light Rain Showers
5:30 PM 77.0 °F - 73.4 °F 89% 29.65 in 6.2 mi SSE 11.5 mph - N/A   Mostly Cloudy
6:00 PM 76 °F - 72 °F 85% 29.67 in 16 mi South 13.8 mph - -   Mostly Cloudy
6:00 PM 77.0 °F - 71.6 °F 83% 29.65 in 6.2 mi South 13.8 mph - N/A   Mostly Cloudy
6:30 PM 75.2 °F - 71.6 °F 89% 29.68 in 6.2 mi South 15.0 mph - N/A   Mostly Cloudy
6:53 PM 75.2 °F - 69.8 °F 83% 29.68 in 2.5 mi South 12.7 mph - N/A Rain Light Rain Showers
7:00 PM 74 °F - 71 °F 87% 29.70 in - South 12.7 mph - -  
7:00 PM 73.4 °F - 71.6 °F 94% 29.68 in 4.3 mi South 12.7 mph - N/A   Mostly Cloudy
7:15 PM 73.4 °F - 69.8 °F 88% 29.68 in 6.2 mi South 12.7 mph - N/A   Mostly Cloudy
7:30 PM 75.2 °F - 71.6 °F 89% 29.68 in 3.1 mi SSE 6.9 mph - N/A Rain Light Rain Showers
8:00 PM 75.2 °F - 71.6 °F 89% 29.71 in 6.2 mi South 9.2 mph - N/A   Mostly Cloudy
8:30 PM 75.2 °F - 71.6 °F 89% 29.71 in 6.2 mi South 12.7 mph - N/A   Mostly Cloudy
9:00 PM 76 °F - 71 °F 81% 29.71 in 4 mi South 15.0 mph - - Rain Light Rain Showers
9:00 PM 75.2 °F - 71.6 °F 89% 29.71 in 3.7 mi South 15.0 mph - N/A Rain Light Rain Showers
9:30 PM 75.2 °F - 71.6 °F 89% 29.71 in 3.7 mi SE 12.7 mph - N/A Rain Light Rain Showers
10:00 PM 75 °F - 71 °F 85% 29.74 in - SSE 11.5 mph - -  
10:00 PM 75.2 °F - 71.6 °F 89% 29.71 in 6.2 mi SSE 11.5 mph - N/A   Mostly Cloudy
10:30 PM 75.2 °F - 69.8 °F 83% 29.71 in 6.2 mi South 13.8 mph - N/A   Mostly Cloudy
10:37 PM 75.2 °F - 69.8 °F 83% 29.71 in 6.2 mi South 17.3 mph 29.9 mph N/A   Mostly Cloudy
11:00 PM 75.2 °F - 69.8 °F 83% 29.71 in 6.2 mi SSE 15.0 mph - N/A   Mostly Cloudy
11:30 PM 75.2 °F - 71.6 °F 89% 29.71 in 6.2 mi SSE 12.7 mph - N/A   Mostly Cloudy